| time (UTC) | temp C | wind direction | speed KPH | gust KPH | rain 1hr cm | rain 24hr cm | rain mn cm | humidity % | barometer mb |
| 20260510011010 | 11 | 152 | 9.7 | 19.3 | 0.00 | 0.03 | 0.03 | 80 | 1032.1 |
| 20260510010004 | 11 | 175 | 8.0 | 22.5 | 0.00 | 0.03 | 0.03 | 82 | 1032.1 |
| 20260510005005 | 11 | 142 | 8.0 | 16.1 | 0.00 | 0.03 | 0.03 | 84 | 1032.1 |
| 20260510004512 | 11 | 170 | 8.0 | 16.1 | 0.00 | 0.03 | 0.03 | 86 | 1032.1 |
| 20260510004004 | 11 | 130 | 6.4 | 16.1 | 0.00 | 0.03 | 0.03 | 86 | 1032.2 |
| 20260510003505 | 11 | 145 | 8.0 | 16.1 | 0.00 | 0.03 | 0.03 | 86 | 1032.1 |
| 20260510003016 | 11 | 171 | 8.0 | 14.5 | 0.00 | 0.03 | 0.03 | 88 | 1032.1 |
| 20260510002506 | 11 | 135 | 8.0 | 14.5 | 0.00 | 0.03 | 0.03 | 88 | 1032.0 |
| 20260510001516 | 11 | 147 | 8.0 | 16.1 | 0.00 | 0.03 | 0.03 | 89 | 1032.1 |
| 20260510001009 | 11 | 185 | 8.0 | 16.1 | 0.00 | 0.03 | 0.03 | 90 | 1032.1 |
| 20260510000511 | 11 | 165 | 8.0 | 14.5 | 0.00 | 0.03 | 0.03 | 90 | 1032.2 |
| 20260510000019 | 11 | 159 | 6.4 | 12.9 | 0.00 | 0.03 | 0.03 | 90 | 1032.0 |
| 20260509235503 | 11 | 144 | 4.8 | 9.7 | 0.00 | 0.03 | 0.03 | 90 | 1032.1 |
| 20260509235003 | 10 | 127 | 4.8 | 12.9 | 0.00 | 0.03 | 0.03 | 90 | 1032.1 |
| 20260509234508 | 10 | 133 | 6.4 | 14.5 | 0.00 | 0.03 | 0.03 | 90 | 1032.1 |
| 20260509234004 | 10 | 199 | 6.4 | 14.5 | 0.00 | 0.03 | 0.03 | 90 | 1032.1 |
| 20260509233504 | 10 | 185 | 4.8 | 9.7 | 0.00 | 0.03 | 0.03 | 90 | 1032.0 |
| 20260509233018 | 10 | 142 | 6.4 | 9.7 | 0.00 | 0.03 | 0.03 | 90 | 1032.0 |
| 20260509232508 | 10 | 160 | 6.4 | 12.9 | 0.00 | 0.03 | 0.03 | 90 | 1031.9 |
| 20260509232007 | 10 | 180 | 6.4 | 12.9 | 0.00 | 0.03 | 0.03 | 90 | 1031.8 |
| 20260509231509 | 10 | 158 | 6.4 | 9.7 | 0.00 | 0.03 | 0.03 | 90 | 1031.8 |
| 20260509231006 | 10 | 156 | 4.8 | 11.3 | 0.00 | 0.03 | 0.03 | 90 | 1031.9 |
| 20260509230507 | 10 | 144 | 6.4 | 11.3 | 0.00 | 0.03 | 0.03 | 90 | 1031.7 |
| 20260509230022 | 10 | 137 | 6.4 | 11.3 | 0.00 | 0.03 | 0.03 | 90 | 1031.7 |
| 20260509225509 | 10 | 139 | 4.8 | 9.7 | 0.00 | 0.03 | 0.03 | 90 | 1031.7 |
| 20260509225007 | 10 | 160 | 4.8 | 8.0 | 0.00 | 0.03 | 0.03 | 90 | 1031.8 |
| 20260509224522 | 10 | 160 | 4.8 | 11.3 | 0.00 | 0.03 | 0.03 | 90 | 1031.8 |
| 20260509224004 | 10 | 185 | 6.4 | 11.3 | 0.00 | 0.03 | 0.03 | 90 | 1031.6 |
| 20260509223503 | 10 | 180 | 4.8 | 9.7 | 0.00 | 0.03 | 0.03 | 90 | 1031.6 |
| 20260509223011 | 10 | 143 | 4.8 | 12.9 | 0.00 | 0.03 | 0.03 | 90 | 1031.6 |
| 20260509222505 | 10 | 180 | 6.4 | 12.9 | 0.00 | 0.03 | 0.03 | 90 | 1031.6 |
| 20260509222008 | 10 | 141 | 8.0 | 12.9 | 0.00 | 0.03 | 0.03 | 90 | 1031.5 |
| 20260509221514 | 10 | 159 | 6.4 | 9.7 | 0.00 | 0.03 | 0.03 | 90 | 1031.5 |
| 20260509221006 | 10 | 158 | 6.4 | 11.3 | 0.00 | 0.03 | 0.03 | 90 | 1031.4 |
| 20260509220507 | 10 | 137 | 6.4 | 14.5 | 0.00 | 0.03 | 0.03 | 90 | 1031.4 |
| 20260509220016 | 10 | 165 | 6.4 | 14.5 | 0.00 | 0.03 | 0.03 | 90 | 1031.2 |
| 20260509215008 | 10 | 170 | 8.0 | 16.1 | 0.00 | 0.03 | 0.03 | 90 | 1031.0 |
| 20260509214516 | 10 | 154 | 8.0 | 16.1 | 0.00 | 0.03 | 0.03 | 90 | 1030.9 |
| 20260509214010 | 10 | 131 | 9.7 | 17.7 | 0.00 | 0.03 | 0.03 | 90 | 1031.0 |
| 20260509213507 | 10 | 166 | 9.7 | 17.7 | 0.00 | 0.03 | 0.03 | 90 | 1031.0 |
| 20260509213013 | 10 | 153 | 9.7 | 17.7 | 0.00 | 0.03 | 0.03 | 90 | 1030.9 |
| 20260509212510 | 10 | 163 | 8.0 | 17.7 | 0.00 | 0.03 | 0.03 | 90 | 1030.6 |
| 20260509212007 | 10 | 153 | 12.9 | 17.7 | 0.00 | 0.03 | 0.03 | 90 | 1030.5 |
| 20260509211513 | 10 | 149 | 11.3 | 19.3 | 0.00 | 0.03 | 0.03 | 90 | 1030.5 |
| 20260509211005 | 10 | 162 | 9.7 | 19.3 | 0.00 | 0.03 | 0.03 | 90 | 1030.3 |
| 20260509210511 | 10 | 175 | 9.7 | 19.3 | 0.00 | 0.03 | 0.03 | 90 | 1030.3 |
| 20260509210016 | 10 | 140 | 9.7 | 17.7 | 0.00 | 0.03 | 0.03 | 90 | 1030.3 |
| 20260509205510 | 10 | 172 | 12.9 | 19.3 | 0.00 | 0.03 | 0.03 | 90 | 1030.4 |
| 20260509205007 | 10 | 135 | 9.7 | 19.3 | 0.00 | 0.03 | 0.03 | 90 | 1030.5 |
| 20260509204520 | 10 | 185 | 6.4 | 14.5 | 0.00 | 0.03 | 0.03 | 90 | 1030.3 |
| 20260509204009 | 10 | 185 | 9.7 | 14.5 | 0.00 | 0.03 | 0.03 | 90 | 1030.4 |
| 20260509203514 | 10 | 192 | 11.3 | 14.5 | 0.00 | 0.03 | 0.03 | 90 | 1030.4 |
| 20260509203035 | 10 | 195 | 6.4 | 12.9 | 0.00 | 0.03 | 0.03 | 90 | 1030.3 |
| 20260509202503 | 10 | 193 | 8.0 | 14.5 | 0.00 | 0.03 | 0.03 | 90 | 1030.3 |
| 20260509202004 | 10 | 175 | 8.0 | 14.5 | 0.00 | 0.03 | 0.03 | 90 | 1030.2 |
| 20260509201502 | 10 | 203 | 8.0 | 14.5 | 0.00 | 0.03 | 0.03 | 90 | 1030.3 |
| 20260509201004 | 10 | 189 | 8.0 | 14.5 | 0.00 | 0.03 | 0.03 | 90 | 1030.1 |
| 20260509200508 | 10 | 185 | 8.0 | 16.1 | 0.00 | 0.03 | 0.03 | 90 | 1030.1 |
| 20260509200012 | 10 | 185 | 8.0 | 16.1 | 0.00 | 0.03 | 0.03 | 90 | 1030.0 |
| 20260509195507 | 10 | 180 | 6.4 | 12.9 | 0.00 | 0.03 | 0.03 | 90 | 1030.0 |
| 20260509195004 | 10 | 185 | 6.4 | 12.9 | 0.00 | 0.03 | 0.03 | 90 | 1030.0 |
| 20260509194504 | 10 | 210 | 4.8 | 16.1 | 0.00 | 0.03 | 0.03 | 90 | 1029.9 |
| 20260509194002 | 10 | 185 | 8.0 | 16.1 | 0.00 | 0.03 | 0.03 | 90 | 1029.8 |
| 20260509193502 | 10 | 208 | 9.7 | 17.7 | 0.00 | 0.03 | 0.03 | 90 | 1029.8 |
| 20260509193005 | 10 | 185 | 8.0 | 17.7 | 0.00 | 0.03 | 0.03 | 90 | 1029.6 |
| 20260509192504 | 10 | 172 | 11.3 | 16.1 | 0.00 | 0.03 | 0.03 | 90 | 1029.5 |
| 20260509192006 | 10 | 213 | 9.7 | 17.7 | 0.00 | 0.03 | 0.03 | 90 | 1029.5 |
| 20260509191510 | 10 | 172 | 9.7 | 17.7 | 0.00 | 0.03 | 0.03 | 90 | 1029.4 |
| 20260509191007 | 10 | 175 | 12.9 | 17.7 | 0.00 | 0.03 | 0.03 | 90 | 1029.4 |
| 20260509190504 | 10 | 211 | 8.0 | 17.7 | 0.00 | 0.03 | 0.03 | 90 | 1029.4 |
| 20260509190009 | 10 | 202 | 9.7 | 19.3 | 0.00 | 0.03 | 0.03 | 90 | 1029.3 |
| 20260509185504 | 10 | 199 | 11.3 | 19.3 | 0.00 | 0.03 | 0.03 | 90 | 1029.2 |
| 20260509185005 | 11 | 191 | 12.9 | 19.3 | 0.00 | 0.03 | 0.03 | 90 | 1029.2 |
| 20260509184009 | 11 | 208 | 9.7 | 16.1 | 0.00 | 0.00 | 0.00 | 90 | 1029.2 |
| 20260509183507 | 11 | 185 | 11.3 | 16.1 | 0.00 | 0.00 | 0.00 | 90 | 1029.1 |
| 20260509183006 | 11 | 191 | 6.4 | 12.9 | 0.00 | 0.03 | 0.00 | 90 | 1029.0 |
| 20260509182503 | 11 | 180 | 4.8 | 9.7 | 0.00 | 0.03 | 0.00 | 90 | 1029.0 |
| 20260509182003 | 11 | 175 | 6.4 | 12.9 | 0.00 | 0.03 | 0.00 | 90 | 1029.0 |
| 20260509181507 | 11 | 191 | 6.4 | 12.9 | 0.00 | 0.03 | 0.00 | 90 | 1029.0 |
| 20260509181006 | 11 | 185 | 9.7 | 12.9 | 0.00 | 0.03 | 0.00 | 90 | 1028.9 |
| 20260509180508 | 11 | 175 | 6.4 | 12.9 | 0.00 | 0.03 | 0.00 | 90 | 1028.9 |
| 20260509180009 | 11 | 164 | 6.4 | 14.5 | 0.00 | 0.03 | 0.00 | 90 | 1028.9 |
| 20260509175506 | 11 | 170 | 8.0 | 14.5 | 0.00 | 0.03 | 0.00 | 90 | 1028.9 |
| 20260509175001 | 11 | 156 | 6.4 | 14.5 | 0.00 | 0.03 | 0.00 | 90 | 1028.9 |
| 20260509174535 | 11 | 172 | 9.7 | 17.7 | 0.00 | 0.03 | 0.00 | 90 | 1028.8 |
| 20260509174007 | 11 | 169 | 9.7 | 19.3 | 0.00 | 0.03 | 0.00 | 90 | 1028.9 |
| 20260509173506 | 11 | 152 | 11.3 | 19.3 | 0.00 | 0.03 | 0.00 | 90 | 1028.9 |
| 20260509173012 | 11 | 153 | 14.5 | 19.3 | 0.00 | 0.03 | 0.00 | 90 | 1029.0 |
| 20260509172505 | 11 | 168 | 9.7 | 16.1 | 0.00 | 0.03 | 0.00 | 90 | 1028.9 |
| 20260509172016 | 11 | 191 | 8.0 | 17.7 | 0.00 | 0.03 | 0.00 | 90 | 1029.0 |
| 20260509171004 | 11 | 152 | 9.7 | 16.1 | 0.00 | 0.03 | 0.00 | 90 | 1029.1 |
| 20260509170504 | 11 | 155 | 8.0 | 19.3 | 0.00 | 0.03 | 0.00 | 90 | 1029.1 |
| 20260509170009 | 11 | 160 | 11.3 | 19.3 | 0.00 | 0.03 | 0.00 | 90 | 1029.1 |
| 20260509165505 | 11 | 190 | 11.3 | 19.3 | 0.00 | 0.03 | 0.00 | 90 | 1029.1 |
| 20260509165006 | 11 | 162 | 8.0 | 17.7 | 0.00 | 0.03 | 0.00 | 90 | 1029.1 |
| 20260509164507 | 11 | 172 | 11.3 | 17.7 | 0.00 | 0.03 | 0.00 | 90 | 1029.2 |
| 20260509164006 | 11 | 193 | 11.3 | 17.7 | 0.00 | 0.03 | 0.00 | 90 | 1029.1 |
| 20260509163506 | 11 | 170 | 11.3 | 17.7 | 0.00 | 0.03 | 0.00 | 90 | 1029.2 |
| 20260509163016 | 11 | 194 | 9.7 | 17.7 | 0.00 | 0.03 | 0.00 | 90 | 1029.2 |
| 20260509162511 | 11 | 189 | 11.3 | 16.1 | 0.00 | 0.03 | 0.00 | 90 | 1029.2 |
| 20260509161527 | 11 | 204 | 8.0 | 12.9 | 0.00 | 0.03 | 0.00 | 90 | 1029.1 |
| 20260509161009 | 11 | 189 | 4.8 | 12.9 | 0.00 | 0.03 | 0.00 | 90 | 1029.2 |
| 20260509160504 | 11 | 158 | 6.4 | 14.5 | 0.00 | 0.03 | 0.00 | 90 | 1029.2 |
| 20260509160020 | 11 | 185 | 8.0 | 14.5 | 0.00 | 0.00 | 0.00 | 90 | 1029.2 |
| 20260509155507 | 11 | 169 | 6.4 | 14.5 | 0.00 | 0.00 | 0.00 | 90 | 1029.2 |
| 20260509155009 | 11 | 171 | 6.4 | 12.9 | 0.00 | 0.00 | 0.00 | 90 | 1029.2 |
| 20260509154506 | 11 | 162 | 6.4 | 12.9 | 0.00 | 0.00 | 0.00 | 90 | 1029.2 |
| 20260509154004 | 11 | 189 | 8.0 | 14.5 | 0.00 | 0.00 | 0.00 | 90 | 1029.2 |
| 20260509153505 | 11 | 172 | 8.0 | 14.5 | 0.00 | 0.00 | 0.00 | 90 | 1029.2 |
| 20260509153029 | 11 | 171 | 8.0 | 12.9 | 0.00 | 0.00 | 0.00 | 90 | 1029.2 |
| 20260509152506 | 11 | 155 | 6.4 | 12.9 | 0.00 | 0.00 | 0.00 | 90 | 1029.2 |
| 20260509152008 | 11 | 185 | 4.8 | 12.9 | 0.00 | 0.00 | 0.00 | 90 | 1029.2 |
| 20260509151517 | 11 | 169 | 8.0 | 14.5 | 0.00 | 0.00 | 0.00 | 90 | 1029.3 |
| 20260509151012 | 11 | 154 | 6.4 | 14.5 | 0.00 | 0.00 | 0.00 | 89 | 1029.3 |
| 20260509150511 | 11 | 137 | 6.4 | 16.1 | 0.00 | 0.00 | 0.00 | 89 | 1029.2 |
| 20260509145510 | 11 | 175 | 6.4 | 11.3 | 0.00 | 0.00 | 0.00 | 89 | 1029.3 |
| 20260509144510 | 11 | 153 | 4.8 | 16.1 | 0.00 | 0.00 | 0.00 | 89 | 1029.3 |
| 20260509144012 | 11 | 138 | 8.0 | 16.1 | 0.00 | 0.00 | 0.00 | 89 | 1029.3 |
| 20260509143509 | 11 | 170 | 6.4 | 17.7 | 0.00 | 0.00 | 0.00 | 89 | 1029.3 |
| 20260509143011 | 11 | 160 | 9.7 | 17.7 | 0.00 | 0.00 | 0.00 | 89 | 1029.3 |
| 20260509142505 | 11 | 163 | 9.7 | 14.5 | 0.00 | 0.00 | 0.00 | 89 | 1029.3 |
| 20260509142005 | 11 | 142 | 8.0 | 14.5 | 0.00 | 0.00 | 0.00 | 89 | 1029.3 |
| 20260509141514 | 11 | 156 | 6.4 | 14.5 | 0.00 | 0.00 | 0.00 | 89 | 1029.4 |
| 20260509141007 | 11 | 155 | 8.0 | 16.1 | 0.00 | 0.00 | 0.00 | 89 | 1029.4 |
| 20260509140506 | 11 | 156 | 8.0 | 16.1 | 0.00 | 0.00 | 0.00 | 89 | 1029.4 |
| 20260509140025 | 11 | 171 | 6.4 | 16.1 | 0.00 | 0.00 | 0.00 | 89 | 1029.4 |
| 20260509135508 | 11 | 157 | 9.7 | 16.1 | 0.00 | 0.00 | 0.00 | 89 | 1029.4 |
| 20260509135014 | 11 | 162 | 8.0 | 12.9 | 0.00 | 0.00 | 0.00 | 89 | 1029.4 |
| 20260509134520 | 11 | 158 | 6.4 | 12.9 | 0.00 | 0.00 | 0.00 | 89 | 1029.5 |
| 20260509134009 | 11 | 149 | 6.4 | 12.9 | 0.00 | 0.00 | 0.00 | 89 | 1029.5 |
| 20260509133509 | 11 | 126 | 8.0 | 12.9 | 0.00 | 0.00 | 0.00 | 89 | 1029.4 |
| 20260509133020 | 11 | 166 | 4.8 | 12.9 | 0.00 | 0.00 | 0.00 | 89 | 1029.5 |
| 20260509132508 | 11 | 170 | 6.4 | 12.9 | 0.00 | 0.00 | 0.00 | 89 | 1029.6 |
| 20260509132010 | 11 | 172 | 8.0 | 12.9 | 0.00 | 0.00 | 0.00 | 89 | 1029.6 |
| 20260509131522 | 11 | 156 | 6.4 | 12.9 | 0.00 | 0.00 | 0.00 | 89 | 1029.6 |
| 20260509131007 | 11 | 156 | 4.8 | 12.9 | 0.00 | 0.00 | 0.00 | 89 | 1029.6 |
| 20260509130505 | 11 | 190 | 6.4 | 16.1 | 0.00 | 0.00 | 0.00 | 89 | 1029.5 |
| 20260509130014 | 11 | 162 | 6.4 | 16.1 | 0.00 | 0.00 | 0.00 | 89 | 1029.4 |
| 20260509125511 | 11 | 175 | 8.0 | 14.5 | 0.00 | 0.00 | 0.00 | 89 | 1029.4 |
| 20260509125008 | 11 | 151 | 4.8 | 14.5 | 0.00 | 0.00 | 0.00 | 88 | 1029.5 |
| 20260509124523 | 11 | 158 | 6.4 | 14.5 | 0.00 | 0.00 | 0.00 | 89 | 1029.5 |
| 20260509124009 | 11 | 157 | 8.0 | 14.5 | 0.00 | 0.00 | 0.00 | 88 | 1029.5 |
| 20260509123509 | 11 | 163 | 6.4 | 14.5 | 0.00 | 0.00 | 0.00 | 88 | 1029.6 |
| 20260509123025 | 11 | 157 | 8.0 | 14.5 | 0.00 | 0.00 | 0.00 | 88 | 1029.6 |
| 20260509122510 | 11 | 180 | 6.4 | 14.5 | 0.00 | 0.00 | 0.00 | 89 | 1029.5 |
| 20260509122007 | 11 | 189 | 6.4 | 12.9 | 0.00 | 0.00 | 0.00 | 88 | 1029.4 |
| 20260509121524 | 11 | 153 | 6.4 | 14.5 | 0.00 | 0.00 | 0.00 | 88 | 1029.3 |
| 20260509121012 | 11 | 156 | 6.4 | 14.5 | 0.00 | 0.00 | 0.00 | 88 | 1029.3 |
| 20260509120514 | 11 | 161 | 6.4 | 12.9 | 0.00 | 0.00 | 0.00 | 88 | 1029.3 |
| 20260509120028 | 11 | 166 | 6.4 | 14.5 | 0.00 | 0.00 | 0.00 | 88 | 1029.3 |
| 20260509115507 | 11 | 172 | 4.8 | 14.5 | 0.00 | 0.00 | 0.00 | 88 | 1029.3 |
| 20260509115010 | 11 | 164 | 9.7 | 16.1 | 0.00 | 0.00 | 0.00 | 88 | 1029.3 |
| 20260509114518 | 11 | 175 | 8.0 | 16.1 | 0.00 | 0.00 | 0.00 | 88 | 1029.3 |
| 20260509114009 | 11 | 172 | 8.0 | 16.1 | 0.00 | 0.00 | 0.00 | 88 | 1029.3 |
| 20260509113510 | 11 | 172 | 6.4 | 14.5 | 0.00 | 0.00 | 0.00 | 88 | 1029.4 |
| 20260509113024 | 11 | 162 | 8.0 | 14.5 | 0.00 | 0.00 | 0.00 | 88 | 1029.3 |
| 20260509112503 | 10 | 163 | 6.4 | 14.5 | 0.00 | 0.00 | 0.00 | 87 | 1029.2 |
| 20260509112006 | 11 | 136 | 8.0 | 14.5 | 0.00 | 0.00 | 0.00 | 87 | 1029.2 |
| 20260509111502 | 11 | 146 | 8.0 | 14.5 | 0.00 | 0.00 | 0.00 | 87 | 1029.2 |
| 20260509111002 | 11 | 156 | 6.4 | 14.5 | 0.00 | 0.00 | 0.00 | 87 | 1029.2 |
| 20260509110502 | 11 | 147 | 8.0 | 12.9 | 0.00 | 0.00 | 0.00 | 87 | 1029.2 |
| 20260509110003 | 10 | 143 | 6.4 | 12.9 | 0.00 | 0.00 | 0.00 | 87 | 1029.3 |
| 20260509105501 | 10 | 167 | 6.4 | 12.9 | 0.00 | 0.00 | 0.00 | 87 | 1029.3 |
| 20260509105003 | 10 | 149 | 6.4 | 12.9 | 0.00 | 0.00 | 0.00 | 86 | 1029.3 |
| 20260509104506 | 10 | 170 | 6.4 | 12.9 | 0.00 | 0.00 | 0.00 | 86 | 1029.2 |
| 20260509104002 | 10 | 147 | 6.4 | 12.9 | 0.00 | 0.00 | 0.00 | 86 | 1029.2 |
| 20260509103501 | 10 | 138 | 8.0 | 12.9 | 0.00 | 0.00 | 0.00 | 86 | 1029.2 |
| 20260509103001 | 10 | 131 | 8.0 | 12.9 | 0.00 | 0.00 | 0.00 | 86 | 1029.2 |
| 20260509102501 | 10 | 140 | 8.0 | 12.9 | 0.00 | 0.00 | 0.00 | 86 | 1029.1 |
| 20260509102004 | 10 | 131 | 6.4 | 11.3 | 0.00 | 0.00 | 0.00 | 86 | 1029.1 |
| 20260509101500 | 11 | 135 | 6.4 | 14.5 | 0.00 | 0.00 | 0.00 | 85 | 1029.1 |
| 20260509101003 | 11 | 137 | 6.4 | 14.5 | 0.00 | 0.00 | 0.00 | 85 | 1029.1 |
| 20260509100502 | 11 | 135 | 6.4 | 9.7 | 0.00 | 0.00 | 0.00 | 85 | 1029.0 |
| 20260509095959 | 11 | 133 | 6.4 | 12.9 | 0.00 | 0.00 | 0.00 | 85 | 1029.1 |
| 20260509095459 | 11 | 132 | 6.4 | 12.9 | 0.00 | 0.00 | 0.00 | 85 | 1029.1 |
| 20260509094959 | 11 | 135 | 8.0 | 12.9 | 0.00 | 0.00 | 0.00 | 85 | 1029.0 |
| 20260509094505 | 11 | 133 | 4.8 | 8.0 | 0.00 | 0.00 | 0.00 | 85 | 1029.0 |
| 20260509094003 | 11 | 140 | 4.8 | 9.7 | 0.00 | 0.00 | 0.00 | 85 | 1028.9 |
| 20260509093503 | 11 | 162 | 4.8 | 9.7 | 0.00 | 0.00 | 0.00 | 85 | 1029.0 |
| 20260509093004 | 11 | 159 | 4.8 | 11.3 | 0.00 | 0.00 | 0.00 | 85 | 1028.9 |
| 20260509092502 | 11 | 189 | 4.8 | 11.3 | 0.00 | 0.00 | 0.00 | 84 | 1029.0 |
| 20260509092007 | 11 | 162 | 4.8 | 9.7 | 0.00 | 0.00 | 0.00 | 84 | 1029.1 |
| 20260509091507 | 11 | 161 | 6.4 | 9.7 | 0.00 | 0.00 | 0.00 | 84 | 1029.1 |
| 20260509091003 | 11 | 162 | 4.8 | 9.7 | 0.00 | 0.00 | 0.00 | 84 | 1029.1 |
| 20260509090504 | 11 | 162 | 4.8 | 12.9 | 0.00 | 0.00 | 0.00 | 84 | 1029.0 |
| 20260509090004 | 11 | 170 | 6.4 | 12.9 | 0.00 | 0.00 | 0.00 | 84 | 1028.9 |
| 20260509085004 | 11 | 180 | 6.4 | 16.1 | 0.00 | 0.00 | 0.00 | 84 | 1028.7 |
| 20260509084504 | 11 | 175 | 8.0 | 16.1 | 0.00 | 0.00 | 0.00 | 84 | 1028.7 |
| 20260509084002 | 12 | 175 | 6.4 | 16.1 | 0.00 | 0.00 | 0.00 | 84 | 1028.7 |
| 20260509083458 | 12 | 166 | 6.4 | 16.1 | 0.00 | 0.00 | 0.00 | 84 | 1028.7 |
| 20260509083010 | 11 | 172 | 6.4 | 14.5 | 0.00 | 0.00 | 0.00 | 84 | 1028.7 |
| 20260509082504 | 11 | 166 | 8.0 | 14.5 | 0.00 | 0.00 | 0.00 | 83 | 1028.6 |
| 20260509082003 | 11 | 175 | 9.7 | 16.1 | 0.00 | 0.00 | 0.00 | 83 | 1028.6 |
| 20260509081507 | 11 | 172 | 9.7 | 16.1 | 0.00 | 0.00 | 0.00 | 83 | 1028.5 |
| 20260509081005 | 11 | 185 | 8.0 | 12.9 | 0.00 | 0.00 | 0.00 | 83 | 1028.5 |
| 20260509080503 | 11 | 170 | 4.8 | 12.9 | 0.00 | 0.00 | 0.00 | 83 | 1028.4 |
| 20260509080006 | 11 | 165 | 4.8 | 12.9 | 0.00 | 0.00 | 0.00 | 83 | 1028.3 |
| 20260509075504 | 11 | 160 | 4.8 | 12.9 | 0.00 | 0.00 | 0.00 | 83 | 1028.2 |
| 20260509075006 | 11 | 180 | 6.4 | 16.1 | 0.00 | 0.00 | 0.00 | 83 | 1028.2 |
| 20260509074505 | 11 | 189 | 8.0 | 16.1 | 0.00 | 0.00 | 0.00 | 83 | 1028.1 |
| 20260509074003 | 11 | 195 | 8.0 | 12.9 | 0.00 | 0.00 | 0.00 | 83 | 1028.0 |
| 20260509073005 | 12 | 164 | 8.0 | 14.5 | 0.00 | 0.00 | 0.00 | 83 | 1028.1 |
| 20260509072504 | 12 | 185 | 8.0 | 14.5 | 0.00 | 0.00 | 0.00 | 83 | 1028.1 |
| 20260509072006 | 12 | 152 | 8.0 | 14.5 | 0.00 | 0.00 | 0.00 | 83 | 1028.0 |
| 20260509071505 | 12 | 166 | 8.0 | 14.5 | 0.00 | 0.00 | 0.00 | 83 | 1028.0 |
| 20260509071003 | 12 | 156 | 6.4 | 12.9 | 0.00 | 0.00 | 0.00 | 83 | 1027.9 |
| 20260509070503 | 12 | 175 | 6.4 | 12.9 | 0.00 | 0.00 | 0.00 | 83 | 1027.8 |
| 20260509070005 | 12 | 185 | 6.4 | 16.1 | 0.00 | 0.00 | 0.00 | 83 | 1027.8 |
| 20260509065502 | 12 | 175 | 8.0 | 17.7 | 0.00 | 0.00 | 0.00 | 83 | 1027.7 |
| 20260509065003 | 12 | 175 | 9.7 | 17.7 | 0.00 | 0.00 | 0.00 | 83 | 1027.7 |
| 20260509064503 | 12 | 192 | 8.0 | 16.1 | 0.00 | 0.00 | 0.00 | 82 | 1027.7 |
| 20260509064009 | 12 | 191 | 9.7 | 16.1 | 0.00 | 0.00 | 0.00 | 82 | 1027.7 |
| 20260509063507 | 12 | 193 | 8.0 | 19.3 | 0.00 | 0.00 | 0.00 | 82 | 1027.7 |
| 20260509062503 | 12 | 185 | 11.3 | 17.7 | 0.00 | 0.00 | 0.00 | 82 | 1027.6 |
| 20260509062004 | 12 | 204 | 8.0 | 17.7 | 0.00 | 0.00 | 0.00 | 82 | 1027.6 |
| 20260509061513 | 12 | 151 | 8.0 | 17.7 | 0.00 | 0.00 | 0.00 | 82 | 1027.7 |
| 20260509061004 | 12 | 164 | 11.3 | 17.7 | 0.00 | 0.00 | 0.00 | 82 | 1027.6 |
| 20260509060509 | 12 | 180 | 11.3 | 17.7 | 0.00 | 0.00 | 0.00 | 82 | 1027.6 |
| 20260509055005 | 12 | 168 | 9.7 | 19.3 | 0.00 | 0.00 | 0.00 | 83 | 1027.6 |
| 20260509054003 | 12 | 197 | 9.7 | 17.7 | 0.00 | 0.00 | 0.00 | 83 | 1027.3 |
| 20260509052510 | 12 | 195 | 14.5 | 22.5 | 0.00 | 0.00 | 0.00 | 82 | 1027.4 |
| 20260509051505 | 12 | 200 | 16.1 | 20.9 | 0.00 | 0.00 | 0.00 | 85 | 1027.3 |
| 20260509050506 | 12 | 172 | 12.9 | 20.9 | 0.00 | 0.00 | 0.00 | 85 | 1027.4 |
| 20260509045505 | 12 | 185 | 11.3 | 22.5 | 0.00 | 0.00 | 0.00 | 86 | 1027.6 |
| 20260509045005 | 12 | 206 | 14.5 | 24.1 | 0.00 | 0.00 | 0.00 | 86 | 1027.6 |
| 20260509044004 | 12 | 170 | 14.5 | 19.3 | 0.00 | 0.00 | 0.00 | 87 | 1027.5 |
| 20260509042007 | 12 | 185 | 12.9 | 20.9 | 0.00 | 0.00 | 0.00 | 90 | 1027.7 |
| 20260509041508 | 12 | 185 | 12.9 | 19.3 | 0.00 | 0.00 | 0.00 | 90 | 1027.6 |
| 20260509041004 | 12 | 194 | 11.3 | 17.7 | 0.00 | 0.00 | 0.00 | 90 | 1027.5 |
| 20260509040012 | 11 | 180 | 11.3 | 17.7 | 0.00 | 0.00 | 0.00 | 90 | 1027.6 |
| 20260509035508 | 11 | 155 | 11.3 | 17.7 | 0.00 | 0.00 | 0.00 | 90 | 1027.7 |
| 20260509035008 | 11 | 140 | 9.7 | 17.7 | 0.00 | 0.00 | 0.00 | 90 | 1027.6 |
| 20260509034506 | 11 | 190 | 11.3 | 17.7 | 0.00 | 0.00 | 0.00 | 90 | 1027.6 |
| 20260509034009 | 11 | 169 | 9.7 | 19.3 | 0.00 | 0.00 | 0.00 | 90 | 1027.7 |
| 20260509033509 | 11 | 175 | 12.9 | 17.7 | 0.00 | 0.00 | 0.00 | 90 | 1027.7 |
| 20260509032008 | 11 | 156 | 8.0 | 17.7 | 0.00 | 0.00 | 0.00 | 90 | 1027.8 |
| 20260509031510 | 11 | 180 | 11.3 | 17.7 | 0.00 | 0.00 | 0.00 | 90 | 1027.9 |
| 20260509031004 | 11 | 170 | 9.7 | 17.7 | 0.00 | 0.00 | 0.00 | 90 | 1028.0 |
| 20260509030505 | 11 | 185 | 11.3 | 19.3 | 0.00 | 0.00 | 0.00 | 90 | 1028.0 |
| 20260509030014 | 11 | 193 | 11.3 | 22.5 | 0.00 | 0.00 | 0.00 | 90 | 1028.0 |
| 20260509025510 | 11 | 170 | 14.5 | 22.5 | 0.00 | 0.00 | 0.00 | 90 | 1028.0 |
| 20260509025004 | 11 | 189 | 12.9 | 19.3 | 0.00 | 0.00 | 0.00 | 90 | 1028.1 |
| 20260509024009 | 11 | 191 | 9.7 | 20.9 | 0.00 | 0.00 | 0.00 | 90 | 1028.1 |
| 20260509023508 | 11 | 195 | 12.9 | 20.9 | 0.00 | 0.00 | 0.00 | 91 | 1028.2 |
| 20260509022004 | 11 | 198 | 12.9 | 19.3 | 0.00 | 0.00 | 0.00 | 91 | 1028.4 |
| 20260509021517 | 11 | 180 | 11.3 | 19.3 | 0.00 | 0.00 | 0.00 | 90 | 1028.4 |
| 20260509021004 | 11 | 189 | 11.3 | 19.3 | 0.00 | 0.03 | 0.00 | 90 | 1028.4 |
| 20260509020503 | 11 | 185 | 11.3 | 19.3 | 0.00 | 0.03 | 0.00 | 91 | 1028.4 |
| 20260509020012 | 11 | 205 | 12.9 | 17.7 | 0.00 | 0.03 | 0.00 | 91 | 1028.5 |
| 20260509015504 | 11 | 180 | 9.7 | 19.3 | 0.00 | 0.03 | 0.00 | 91 | 1028.6 |
| 20260509015004 | 11 | 175 | 14.5 | 20.9 | 0.00 | 0.03 | 0.00 | 90 | 1028.6 |
| 20260509014510 | 11 | 193 | 14.5 | 20.9 | 0.00 | 0.03 | 0.00 | 90 | 1028.6 |
| 20260509014004 | 11 | 185 | 12.9 | 19.3 | 0.00 | 0.03 | 0.00 | 91 | 1028.6 |
| 20260509013508 | 11 | 191 | 11.3 | 19.3 | 0.00 | 0.03 | 0.00 | 91 | 1028.6 |
| 20260509013012 | 11 | 163 | 9.7 | 19.3 | 0.00 | 0.03 | 0.00 | 91 | 1028.6 |
| 20260509012504 | 11 | 185 | 12.9 | 19.3 | 0.00 | 0.03 | 0.00 | 90 | 1028.5 |
| 20260509011505 | 11 | 189 | 11.3 | 17.7 | 0.00 | 0.03 | 0.00 | 91 | 1028.5 |